Terminal Aerodrome Forecast
Issued by NWS

Home | Current Version | Previous Version | Text Only | Print | Product List | Glossary On
Versions: 1 2 3 4 5 6 7 8 9 10 11 12 13 14 15 16 17 18 19 20 21 22 23 24 25 26 27 28 29 30 31 32 33 34 35 36 37 38 39 40 41 42 43 44 45 46 47 48 49 50
000
FTAK31 PANC 040741 AAA
TAFASN
TAF AMD
PASN 040741Z 0408/0506 05016KT P6SM FEW200
     FM041000 05018KT P6SM VCFG BKN025
     FM041200 05018KT 2SM BR OVC004
     FM041800 05020G28KT 1SM -RA BR OVC001 WS020/10045KT
     FM050400 04015G22KT 2SM -RA BR SCT001 OVC003 WS020/10035KT=

USA.gov is the U.S. government's official web portal to all federal, state and local government web resources and services.